FW6983 Weather Reports


time (UTC)temp
C
wind
direction
speed
KPH
gust
KPH
rain 1hr
cm
rain 24hr
cm
rain mn
cm
humidity
%
barometer
mb
20260509000047 17 0 0.0 0.0 0.00 0.00 0.00 74 1015.6
20260508234544 18 0 0.0 0.0 0.00 0.00 0.00 73 1015.5
20260508233045 18 0 0.0 0.0 0.00 0.00 0.00 72 1015.6
20260508231555 19 0 0.0 0.0 0.00 0.00 0.00 69 1015.6
20260508230047 19 0 0.0 1.6 0.00 0.00 0.00 69 1015.4
20260508224605 20 0 0.0 1.6 0.00 0.00 0.00 65 1015.3
20260508223048 20 0 0.0 4.8 0.00 0.00 0.00 61 1015.6
20260508221556 20 0 0.0 1.6 0.00 0.00 0.00 61 1015.5
20260508220049 20 0 0.0 4.8 0.00 0.00 0.00 60 1015.2
20260508214551 20 0 0.0 6.4 0.00 0.00 0.00 59 1015.3
20260508213053 20 167 1.6 6.4 0.00 0.00 0.00 56 1015.4
20260508211555 20 0 0.0 6.4 0.00 0.00 0.00 57 1015.4
20260508210046 20 0 1.6 11.3 0.00 0.00 0.00 58 1015.2
20260508204543 21 76 1.6 9.7 0.00 0.00 0.00 56 1015.3
20260508203044 20 70 0.0 8.0 0.00 0.00 0.00 56 1015.2
20260508201548 20 0 0.0 6.4 0.00 0.00 0.00 54 1015.6
20260508200105 21 237 1.6 8.0 0.00 0.00 0.00 54 1015.6
20260508194548 21 0 1.6 14.5 0.00 0.00 0.00 52 1015.9
20260508193055 21 0 1.6 14.5 0.00 0.00 0.00 49 1016.1
20260508191543 21 248 4.8 16.1 0.00 0.00 0.00 51 1016.2
20260508190046 21 0 0.0 11.3 0.00 0.00 0.00 51 1016.4
20260508184546 21 0 3.2 16.1 0.00 0.00 0.00 49 1016.8
20260508183100 20 0 1.6 11.3 0.00 0.00 0.00 56 1017.2
20260508181601 21 117 3.2 6.4 0.00 0.00 0.00 52 1017.2
20260508180054 20 270 6.4 17.7 0.00 0.00 0.00 49 1017.3
20260508174550 20 228 1.6 17.7 0.00 0.00 0.00 52 1017.4
20260508173056 20 309 6.4 12.9 0.00 0.00 0.00 52 1017.8
20260508171551 20 78 1.6 11.3 0.00 0.00 0.00 51 1017.9
20260508170048 20 17 0.0 11.3 0.00 0.00 0.00 53 1018.3
20260508164545 20 267 3.2 11.3 0.00 0.00 0.00 54 1018.4
20260508163050 20 0 4.8 11.3 0.00 0.00 0.00 53 1018.6
20260508161550 20 51 3.2 9.7 0.00 0.00 0.00 52 1018.7
20260508160100 19 63 1.6 9.7 0.00 0.00 0.00 52 1018.6
20260508154552 18 0 0.0 6.4 0.00 0.00 0.00 61 1018.9
20260508153051 18 90 0.0 4.8 0.00 0.00 0.00 57 1019.2
20260508151547 18 0 1.6 6.4 0.00 0.00 0.00 56 1019.2
20260508150119 18 46 1.6 6.4 0.00 0.00 0.00 53 1019.0
20260508144600 18 49 4.8 9.7 0.00 0.00 0.00 54 1018.9
20260508143052 18 0 0.0 6.4 0.00 0.00 0.00 65 1019.0
20260508141559 17 51 0.0 8.0 0.00 0.00 0.00 62 1019.1
20260508140057 17 0 0.0 6.4 0.00 0.00 0.00 65 1019.2
20260508134548 16 166 1.6 6.4 0.00 0.00 0.00 67 1019.5
20260508133048 14 61 0.0 6.4 0.00 0.00 0.00 73 1019.5
20260508131556 13 290 0.0 8.0 0.00 0.00 0.00 81 1019.5
20260508130047 11 0 0.0 0.0 0.00 0.00 0.00 91 1019.2
20260508124550 11 0 0.0 0.0 0.00 0.00 0.00 93 1019.1
20260508123047 10 0 0.0 0.0 0.00 0.00 0.00 93 1019.0
20260508121550 9 0 0.0 0.0 0.00 0.00 0.00 93 1018.8
20260508120049 8 0 0.0 0.0 0.00 0.00 0.00 92 1018.6
20260508114548 7 0 0.0 0.0 0.00 0.00 0.00 92 1018.6
20260508113110 6 0 0.0 0.0 0.00 0.00 0.00 91 1018.4
20260508111546 6 0 0.0 0.0 0.00 0.00 0.00 91 1017.9
20260508110046 6 0 0.0 0.0 0.00 0.00 0.00 91 1017.7
20260508104555 6 0 0.0 0.0 0.00 0.00 0.00 91 1017.7
20260508103045 6 0 0.0 0.0 0.00 0.00 0.00 91 1017.3
20260508101548 6 0 0.0 0.0 0.00 0.00 0.00 91 1017.1
20260508100043 7 0 0.0 1.6 0.00 0.00 0.00 90 1016.7
20260508094549 7 0 0.0 3.2 0.00 0.00 0.00 90 1016.6
20260508093052 7 0 0.0 3.2 0.00 0.00 0.00 90 1016.6
20260508091548 7 0 0.0 1.6 0.00 0.00 0.00 90 1016.7
20260508090050 7 0 0.0 0.0 0.00 0.00 0.00 90 1016.6
20260508084547 7 0 0.0 0.0 0.00 0.00 0.00 89 1016.7
20260508083048 7 0 0.0 0.0 0.00 0.00 0.00 89 1016.5
20260508081555 7 0 0.0 0.0 0.00 0.00 0.00 89 1016.6
20260508080045 7 0 0.0 0.0 0.00 0.00 0.00 89 1016.3
20260508074550 8 0 0.0 0.0 0.00 0.00 0.00 89 1016.1
20260508073103 8 0 0.0 0.0 0.00 0.00 0.00 89 1016.3
20260508071545 8 0 0.0 0.0 0.00 0.00 0.00 88 1016.1
20260508070050 8 0 0.0 0.0 0.00 0.00 0.00 88 1016.2
20260508064602 8 0 0.0 0.0 0.00 0.00 0.00 88 1015.9
20260508063048 8 0 0.0 0.0 0.00 0.00 0.00 88 1015.9
20260508061554 9 0 0.0 0.0 0.00 0.00 0.00 88 1015.8
20260508060049 9 0 0.0 1.6 0.00 0.00 0.00 87 1015.8
20260508054605 9 0 0.0 1.6 0.00 0.00 0.00 86 1015.8
20260508053044 10 0 0.0 0.0 0.00 0.00 0.00 85 1015.9
20260508051547 10 0 0.0 1.6 0.00 0.00 0.00 85 1015.9
20260508050050 10 0 0.0 0.0 0.00 0.00 0.00 84 1015.8
20260508044544 11 291 0.0 0.0 0.00 0.00 0.00 84 1015.7
20260508043056 11 0 0.0 3.2 0.00 0.00 0.00 83 1015.6
20260508041544 11 0 0.0 1.6 0.00 0.00 0.00 82 1015.6
20260508040057 12 0 0.0 3.2 0.00 0.00 0.00 82 1015.5
20260508034547 12 289 0.0 3.2 0.00 0.00 0.00 80 1015.6
20260508033045 12 0 0.0 4.8 0.00 0.00 0.00 78 1015.6
20260508031552 13 0 0.0 3.2 0.00 0.00 0.00 75 1015.6
20260508030046 13 0 0.0 0.0 0.00 0.00 0.00 72 1015.4
20260508024548 14 0 0.0 0.0 0.00 0.00 0.00 71 1015.3
20260508023046 14 0 0.0 4.8 0.00 0.00 0.00 70 1014.8
20260508021544 14 0 1.6 14.5 0.00 0.00 0.00 69 1014.7
20260508020042 14 0 1.6 11.3 0.00 0.00 0.00 71 1014.5
20260508014545 14 0 1.6 9.7 0.00 0.00 0.00 71 1014.3
20260508013046 15 261 3.2 16.1 0.00 0.00 0.00 72 1014.0
20260508011550 15 0 1.6 16.1 0.00 0.00 0.00 73 1013.7
20260508010046 15 248 1.6 6.4 0.00 0.00 0.00 73 1013.5
20260508004544 15 0 0.0 14.5 0.00 0.00 0.00 72 1013.4
20260508003045 16 0 1.6 11.3 0.00 0.00 0.00 72 1013.1
20260508001547 16 20 1.6 11.3 0.00 0.00 0.00 71 1012.8